Location: Cicognara
(44.9500°N, 10.4667°E)
Time: 09:19:12
(UTC+00:00)

SL-4 R/B - Pass Details

Date: 20 June 2021
Orbit: 428 x 662 km, 51.6° (Epoch: 04 August)

Event Time Altitude Azimuth Distance (km) Brightness Sun altitude
Rises 21:53:14 0° 240° (WSW) 2,761 5.5 -18.8°
Reaches altitude 10° 21:55:34 10° 241° (WSW) 1,825 4.6 -19.0°
Maximum altitude 21:59:43 86° 328° (NNW) 527 1.8 -19.2°
Drops below altitude 10° 22:03:33 10° 60° (ENE) 1,689 4.6 -19.4°
Sets 22:05:38 0° 61° (ENE) 2,536 5.6 -19.5°
